Weather History for LFBM - March, 2013

Change the Weather History Date:

Monday, March 18, 2013

  Actual Average Record
Temperature  
Mean Temperature 45 °F -  
Max Temperature 50 °F 59 °F 75 °F (2009)
Min Temperature 40 °F 41 °F 33 °F (2009)
Degree Days  
Heating Degree Days 20    
Moisture  
Dew Point 40 °F    
Average Humidity 85    
Maximum Humidity 93    
Minimum Humidity 66    
Precipitation  
Precipitation 0.24 in - - ()
Sea Level Pressure  
Sea Level Pressure 29.57 in    
Wind  
Wind Speed 9 mph ()    
Max Wind Speed 21 mph    
Max Gust Speed 34 mph    
Visibility 6.0 miles    
Events Rain    
Averages and records for this station are not official NWS values.
T = Trace of Precipitation, MM = Missing Value Source: Averaged Metar Reports

Daily Weather History Graph

Daily Weather History Graph

Search for Another Location

Airport or City:

Trip Planner

Search our weather history database for the weather conditions in past years. The results will help you decide how hot, cold, wet, or windy it might be!

Date:

Astronomy

Mar. 18, 2013 Rise Set
Actual Time 7:08 AM CET 7:11 PM CET
Civil Twilight 6:40 AM CET 7:40 PM CET
Nautical Twilight 6:06 AM CET 8:14 PM CET
Astronomical Twilight 5:32 AM CET 8:48 PM CET
Moon 10:45 AM CET (3/18) 1:10 AM CET (3/18)
Length of Visible Light 13h 00m
Length of Day
12h 03m
Waxing Crescent, 38% of the Moon is Illuminated
Mar 18
Waxing Crescent
Mar 19
First Quarter
Mar 27
Full
Apr 3
Last Quarter
Apr 10
New

Hourly Weather History & Observations

Time (CET) Temp. Windchill Dew Point Humidity Pressure Visibility Wind Dir Wind Speed Gust Speed Precip Events Conditions
12:00 AM 44.6 °F 43.1 °F 41.0 °F 87% 29.53 in 6.2 mi SSW 3.5 mph - N/A   Mostly Cloudy
12:30 AM 44.6 °F 41.4 °F 41.0 °F 87% 29.50 in 6.2 mi SW 5.8 mph - N/A   Unknown
1:00 AM 44 °F - 40 °F 83% 29.53 in 37 mi SSW 4.6 mph - -   Clear
1:00 AM 44.6 °F 42.2 °F 41.0 °F 87% 29.50 in 6.2 mi SSW 4.6 mph - N/A   Unknown
1:30 AM 42.8 °F 40.1 °F 39.2 °F 87% 29.50 in 6.2 mi SW 4.6 mph - N/A   Partly Cloudy
2:00 AM 42.8 °F 41.1 °F 39.2 °F 87% 29.50 in 6.2 mi SSW 3.5 mph - N/A   Unknown
2:30 AM 41.0 °F 39.0 °F 39.2 °F 93% 29.50 in 6.2 mi SSW 3.5 mph - N/A   Unknown
3:00 AM 41.0 °F 37.1 °F 39.2 °F 93% 29.50 in 6.2 mi WSW 5.8 mph - N/A   Mostly Cloudy
3:30 AM 41.0 °F 39.0 °F 39.2 °F 93% 29.50 in 6.2 mi South 3.5 mph - N/A   Scattered Clouds
4:00 AM 41.0 °F 38.0 °F 37.4 °F 87% 29.47 in 6.2 mi SSW 4.6 mph - N/A   Unknown
4:30 AM 41.0 °F 37.1 °F 37.4 °F 87% 29.47 in 6.2 mi SSW 5.8 mph - N/A   Unknown
5:00 AM 41.0 °F 37.1 °F 37.4 °F 87% 29.47 in 6.2 mi SSW 5.8 mph - N/A   Unknown
5:30 AM 41.0 °F 32.8 °F 37.4 °F 87% 29.50 in 3.1 mi West 16.1 mph 29.9 mph N/A Rain Rain
6:00 AM 41.0 °F 34.7 °F 39.2 °F 93% 29.50 in 6.2 mi WSW 10.4 mph 24.2 mph N/A Rain Light Rain
6:30 AM 41.0 °F 35.2 °F 37.4 °F 87% 29.50 in 6.2 mi SW 9.2 mph - N/A   Mostly Cloudy
7:00 AM 42 °F - 39 °F 87% 29.52 in 6 mi WSW 15.0 mph - - Rain Light Rain
7:00 AM 42.8 °F 35.4 °F 39.2 °F 87% 29.50 in 5.6 mi WSW 15.0 mph 28.8 mph N/A Rain Light Rain
7:30 AM 41.0 °F 35.8 °F 39.2 °F 93% 29.50 in 6.2 mi SW 8.1 mph - N/A   Mostly Cloudy
8:00 AM 42.8 °F 37.5 °F 39.2 °F 87% 29.50 in 6.2 mi SW 9.2 mph - N/A   Mostly Cloudy
8:30 AM 44.6 °F 38.8 °F 39.2 °F 81% 29.50 in 6.2 mi SW 11.5 mph - N/A   Mostly Cloudy
9:00 AM 44.6 °F 36.9 °F 39.2 °F 81% 29.50 in 4.3 mi West 18.4 mph 34.5 mph N/A Rain Light Rain
9:30 AM 44.6 °F 38.1 °F 39.2 °F 81% 29.50 in 6.2 mi WSW 13.8 mph - N/A   Mostly Cloudy
10:00 AM 41.0 °F 33.5 °F 39.2 °F 93% 29.53 in 6.2 mi WSW 13.8 mph - N/A Rain Light Rain
10:30 AM 42.8 °F 35.4 °F 39.2 °F 87% 29.53 in 6.2 mi WSW 15.0 mph - N/A Rain Heavy Rain
11:00 AM 42.8 °F 37.0 °F 41.0 °F 93% 29.53 in 6.2 mi WSW 10.4 mph - N/A   Mostly Cloudy
11:30 AM 44.6 °F 37.8 °F 39.2 °F 81% 29.53 in 6.2 mi WSW 15.0 mph - N/A   Mostly Cloudy
12:00 PM 42.8 °F 35.1 °F 39.2 °F 87% 29.56 in 6.2 mi SW 16.1 mph - N/A   Mostly Cloudy
12:30 PM 46.4 °F 40.1 °F 41.0 °F 81% 29.56 in 6.2 mi SW 15.0 mph - N/A   Mostly Cloudy
1:00 PM 44 °F - 41 °F 86% 29.60 in 5 mi WSW 13.8 mph - - Rain Light Rain
1:00 PM 44.6 °F 38.1 °F 41.0 °F 87% 29.56 in 5.0 mi WSW 13.8 mph - N/A Rain Light Rain
1:30 PM 46.4 °F 40.4 °F 42.8 °F 87% 29.56 in 6.2 mi West 13.8 mph - N/A Rain Light Rain
2:00 PM 48.2 °F - 39.2 °F 71% 29.59 in 6.2 mi WSW 19.6 mph 32.2 mph N/A   Mostly Cloudy
2:30 PM 50.0 °F - 39.2 °F 66% 29.59 in 6.2 mi WSW 19.6 mph 34.5 mph N/A   Mostly Cloudy
3:00 PM 44.6 °F 36.9 °F 39.2 °F 81% 29.62 in 6.2 mi WSW 18.4 mph - N/A   Overcast
3:30 PM 46.4 °F 39.2 °F 41.0 °F 81% 29.62 in 6.2 mi WSW 18.4 mph - N/A   Mostly Cloudy
4:00 PM 48.2 °F - 41.0 °F 76% 29.62 in 6.2 mi West 20.7 mph - N/A   Mostly Cloudy
4:30 PM 50.0 °F - 39.2 °F 66% 29.62 in 6.2 mi West 20.7 mph - N/A   Mostly Cloudy
5:00 PM 48.2 °F - 39.2 °F 71% 29.62 in 6.2 mi WSW 12.7 mph - N/A   Mostly Cloudy
5:30 PM 46.4 °F 39.2 °F 39.2 °F 76% 29.65 in 6.2 mi WSW 18.4 mph 31.1 mph N/A Rain Light Rain
6:00 PM 42.8 °F 34.0 °F 39.2 °F 87% 29.65 in 6.2 mi West 20.7 mph - N/A   Mostly Cloudy
6:30 PM 44.6 °F 37.8 °F 39.2 °F 81% 29.65 in 6.2 mi West 15.0 mph - N/A   Mostly Cloudy
7:00 PM 44.6 °F 40.7 °F 41.0 °F 87% 29.68 in 6.2 mi WSW 6.9 mph - N/A Rain Light Rain
7:30 PM 44.6 °F 39.7 °F 41.0 °F 87% 29.68 in 6.2 mi West 9.2 mph - N/A   Mostly Cloudy
8:00 PM 42.8 °F 35.4 °F 39.2 °F 87% 29.68 in 6.2 mi WSW 15.0 mph - N/A Rain Light Rain
8:30 PM 44.6 °F 38.8 °F 39.2 °F 81% 29.68 in 6.2 mi WSW 11.5 mph - N/A   Unknown
9:00 PM 44.6 °F 37.2 °F 39.2 °F 81% 29.68 in 6.2 mi WSW 17.3 mph - N/A Rain Light Rain
9:30 PM 42.8 °F 36.2 °F 39.2 °F 87% 29.71 in 6.2 mi WNW 12.7 mph - N/A   Mostly Cloudy
10:00 PM 42.8 °F 38.0 °F 41.0 °F 93% 29.71 in 6.2 mi West 8.1 mph - N/A Rain Light Rain
10:30 PM 42.8 °F 38.6 °F 41.0 °F 93% 29.71 in 6.2 mi SW 6.9 mph - N/A Rain Light Rain
11:00 PM 42.8 °F 39.3 °F 41.0 °F 93% 29.71 in 6.2 mi SSW 5.8 mph - N/A   Mostly Cloudy
11:30 PM 42.8 °F 36.6 °F 39.2 °F 87% 29.71 in 6.2 mi WSW 11.5 mph - N/A Rain Light Rain